,,,PA_Meas_PMT16A,,PR_Meas_QMR101_102,,RH_Meas_QMH101,,SR_Meas_QMS101,,TA_Meas_QMH101,,GenWind,,GenWind,
date,time,status,PA,status,PR,status,RH,status,SR,status,TA,status,DirAvg,status,SpdAvg,
2012-04-22, 00:00:05,VALID,1009.56,VALID,0,VALID,104,VALID,0,VALID,23.694,VALID,37,VALID,0.391797,
2012-04-22, 00:01:05,VALID,1009.56,VALID,0,VALID,104,VALID,0,VALID,23.7135,VALID,54,VALID,0.595703,
2012-04-22, 00:02:05,VALID,1009.57,VALID,0,VALID,104,VALID,0,VALID,23.6922,VALID,55,VALID,0.452734,
2012-04-22, 00:03:05,VALID,1009.58,VALID,0,VALID,104,VALID,0,VALID,23.7117,VALID,61,VALID,0.417188,
2012-04-22, 00:04:05,VALID,1009.57,VALID,0,VALID,104,VALID,0,VALID,23.7117,VALID,60,VALID,0.608984,
2012-04-22, 00:05:05,VALID,1009.55,VALID,0,VALID,104,VALID,0,VALID,23.7525,VALID,71,VALID,0.927344,
2012-04-22, 00:06:05,VALID,1009.54,VALID,0,VALID,104,VALID,0,VALID,23.772,VALID,72,VALID,0.765234,
2012-04-22, 00:07:05,VALID,1009.54,VALID,0,VALID,104,VALID,0,VALID,23.772,VALID,71,VALID,0.775391,
2012-04-22, 00:08:04,VALID,1009.52,VALID,0,VALID,104,VALID,0,VALID,23.7914,VALID,61,VALID,1.08203,
2012-04-22, 00:09:04,VALID,1009.48,VALID,0,VALID,104,VALID,0,VALID,23.7896,VALID,48,VALID,0.9125,
2012-04-22, 00:10:04,VALID,1009.47,VALID,0,VALID,104,VALID,0,VALID,23.7896,VALID,59,VALID,0.899609,
2012-04-22, 00:11:04,VALID,1009.45,VALID,0,VALID,104,VALID,0,VALID,23.8109,VALID,58,VALID,0.216797,
2012-04-22, 00:12:04,VALID,1009.44,VALID,0,VALID,104,VALID,0,VALID,23.8109,VALID,58,VALID,0.517969,
2012-04-22, 00:13:04,VALID,1009.43,VALID,0,VALID,104,VALID,0,VALID,23.7701,VALID,58,VALID,0.528906,
2012-04-22, 00:14:04,VALID,1009.45,VALID,0,VALID,104,VALID,0,VALID,23.772,VALID,26,VALID,0.561328,
2012-04-22, 00:15:04,VALID,1009.43,VALID,0,VALID,104,VALID,0,VALID,23.7525,VALID,26,VALID,0.585547,
2012-04-22, 00:16:04,VALID,1009.43,VALID,0,VALID,104,VALID,0,VALID,23.7525,VALID,21,VALID,0.690234,
2012-04-22, 00:17:04,VALID,1009.43,VALID,0,VALID,104,VALID,0,VALID,23.7135,VALID,19,VALID,0.492188,
2012-04-22, 00:18:04,VALID,1009.4,VALID,0,VALID,104,VALID,0,VALID,23.694,VALID,46,VALID,0.575391,
2012-04-22, 00:19:04,VALID,1009.41,VALID,0,VALID,104,VALID,0,VALID,23.6532,VALID,35,VALID,0.273828,
2012-04-22, 00:20:04,VALID,1009.36,VALID,0,VALID,104,VALID,0,VALID,23.655,VALID,35,VALID,0.254687,
2012-04-22, 00:21:04,VALID,1009.38,VALID,0,VALID,104,VALID,0,VALID,23.6356,VALID,35,VALID,0.439453,
2012-04-22, 00:22:04,VALID,1009.36,VALID,0,VALID,104,VALID,0,VALID,23.5948,VALID,44,VALID,0.2625,
2012-04-22, 00:23:04,VALID,1009.32,VALID,0,VALID,104,VALID,0,VALID,23.5948,VALID,44,VALID,0.00117188,
2012-04-22, 00:24:04,VALID,1009.31,VALID,0,VALID,104,VALID,0,VALID,23.5753,VALID,44,VALID,0.367578,
2012-04-22, 00:25:04,VALID,1009.28,VALID,0,VALID,104,VALID,0,VALID,23.5966,VALID,24,VALID,0.44375,
2012-04-22, 00:26:04,VALID,1009.29,VALID,0,VALID,104,VALID,0,VALID,23.5966,VALID,24,VALID,0.313672,
2012-04-22, 00:27:04,VALID,1009.29,VALID,0,VALID,104,VALID,0,VALID,23.5558,VALID,24,VALID,0.248828,
2012-04-22, 00:28:04,VALID,1009.29,VALID,0,VALID,104,VALID,0,VALID,23.5771,VALID,24,VALID,0.0859375,
2012-04-22, 00:29:04,VALID,1009.27,VALID,0,VALID,104,VALID,0,VALID,23.5771,VALID,24,VALID,0.00117188,
2012-04-22, 00:30:04,VALID,1009.27,VALID,0,VALID,104,VALID,0,VALID,23.5771,VALID,24,VALID,0.21875,
2012-04-22, 00:31:04,VALID,1009.26,VALID,0,VALID,104,VALID,0,VALID,23.5558,VALID,24,VALID,0.382422,
2012-04-22, 00:32:04,VALID,1009.24,VALID,0,VALID,104,VALID,0,VALID,23.5771,VALID,61,VALID,0.544922,
2012-04-22, 00:33:04,VALID,1009.2,VALID,0,VALID,104,VALID,0,VALID,23.5771,VALID,67,VALID,0.489062,
2012-04-22, 00:34:04,VALID,1009.19,VALID,0,VALID,104,VALID,0.112112,VALID,23.5771,VALID,67,VALID,0.532422,
2012-04-22, 00:35:04,VALID,1009.17,VALID,0,VALID,104,VALID,0,VALID,23.5771,VALID,67,VALID,0.525781,
2012-04-22, 00:36:04,VALID,1009.17,VALID,0,VALID,104,VALID,0,VALID,23.5576,VALID,67,VALID,0.505859,
2012-04-22, 00:37:04,VALID,1009.13,VALID,0,VALID,104,VALID,0,VALID,23.5363,VALID,67,VALID,0,
2012-04-22, 00:38:04,VALID,1009.14,VALID,0,VALID,104,VALID,0,VALID,23.5576,VALID,67,VALID,0.127734,
2012-04-22, 00:39:04,VALID,1009.13,VALID,0,VALID,104,VALID,0,VALID,23.5576,VALID,67,VALID,0.218359,
2012-04-22, 00:40:04,VALID,1009.11,VALID,0,VALID,104,VALID,0,VALID,23.5576,VALID,67,VALID,0.503906,
2012-04-22, 00:41:04,VALID,1009.1,VALID,0,VALID,104,VALID,0,VALID,23.5771,VALID,67,VALID,0.462891,
2012-04-22, 00:42:04,VALID,1009.1,VALID,0,VALID,104,VALID,0,VALID,23.5771,VALID,67,VALID,0.648438,
2012-04-22, 00:43:04,VALID,1009.09,VALID,0,VALID,104,VALID,0,VALID,23.5966,VALID,67,VALID,0.350391,
2012-04-22, 00:44:04,VALID,1009.1,VALID,0,VALID,104,VALID,0,VALID,23.5966,VALID,67,VALID,0.2875,
2012-04-22, 00:45:04,VALID,1009.08,VALID,0,VALID,104,VALID,0,VALID,23.6161,VALID,66,VALID,0.328516,
2012-04-22, 00:46:04,VALID,1009.18,VALID,0,VALID,104,VALID,0,VALID,23.6356,VALID,4,VALID,0.722266,
2012-04-22, 00:47:04,VALID,1009.26,VALID,0,VALID,104,VALID,0,VALID,23.655,VALID,303,VALID,0.787109,
2012-04-22, 00:48:04,VALID,1009.27,VALID,0,VALID,104,VALID,0,VALID,23.694,VALID,268,VALID,0.7875,
2012-04-22, 00:49:04,VALID,1009.26,VALID,0,VALID,104,VALID,0,VALID,23.7135,VALID,325,VALID,0.515625,
2012-04-22, 00:50:04,VALID,1009.24,VALID,0,VALID,104,VALID,0,VALID,23.7525,VALID,256,VALID,0.791406,
2012-04-22, 00:51:04,VALID,1009.21,VALID,0,VALID,104,VALID,0,VALID,23.772,VALID,200,VALID,0.0542969,
2012-04-22, 00:52:04,VALID,1009.25,VALID,0,VALID,104,VALID,0,VALID,23.8109,VALID,311,VALID,0.658984,
2012-04-22, 00:53:04,VALID,1009.26,VALID,0,VALID,104,VALID,0,VALID,23.8091,VALID,297,VALID,1.10898,
2012-04-22, 00:54:04,VALID,1009.28,VALID,0,VALID,104,VALID,0,VALID,23.8499,VALID,311,VALID,0.975781,
2012-04-22, 00:55:04,VALID,1009.25,VALID,0,VALID,104,VALID,0,VALID,23.8889,VALID,286,VALID,0.700781,
2012-04-22, 00:56:04,VALID,1009.25,VALID,0,VALID,104,VALID,0,VALID,23.9278,VALID,254,VALID,0.308984,
2012-04-22, 00:57:04,VALID,1009.26,VALID,0,VALID,104,VALID,0,VALID,23.9863,VALID,253,VALID,0.389844,
2012-04-22, 00:58:04,VALID,1009.23,VALID,0,VALID,104,VALID,0,VALID,24.0058,VALID,286,VALID,0.254687,
2012-04-22, 00:59:04,VALID,1009.26,VALID,0,VALID,104,VALID,0,VALID,24.0429,VALID,302,VALID,0.423047,
2012-04-22, 01:00:04,VALID,1009.24,VALID,0,VALID,104,VALID,0,VALID,24.0448,VALID,292,VALID,1.16953,
2012-04-22, 01:01:04,VALID,1009.28,VALID,0,VALID,104,VALID,0,VALID,24.0643,VALID,312,VALID,0.598437,
2012-04-22, 01:02:04,VALID,1009.3,VALID,0,VALID,104,VALID,0,VALID,24.1051,VALID,314,VALID,0.944922,
2012-04-22, 01:03:04,VALID,1009.27,VALID,0,VALID,104,VALID,0,VALID,24.0837,VALID,282,VALID,0.694141,
2012-04-22, 01:04:04,VALID,1009.24,VALID,0,VALID,104,VALID,0,VALID,24.1032,VALID,258,VALID,0.0140625,
2012-04-22, 01:05:04,VALID,1009.28,VALID,0,VALID,104,VALID,0,VALID,24.1227,VALID,309,VALID,0.614844,
2012-04-22, 01:06:04,VALID,1009.22,VALID,0,VALID,104,VALID,0,VALID,24.1227,VALID,320,VALID,0.278906,
2012-04-22, 01:07:04,VALID,1009.19,VALID,0,VALID,104,VALID,0,VALID,24.1422,VALID,320,VALID,0.401563,
2012-04-22, 01:08:04,VALID,1009.19,VALID,0,VALID,104,VALID,0,VALID,24.1422,VALID,332,VALID,0.998438,
2012-04-22, 01:09:04,VALID,1009.17,VALID,0,VALID,104,VALID,0,VALID,24.1404,VALID,334,VALID,0.417188,
2012-04-22, 01:10:04,VALID,1009.17,VALID,0,VALID,104,VALID,0,VALID,24.1404,VALID,334,VALID,0.253516,
2012-04-22, 01:11:04,VALID,1009.16,VALID,0,VALID,104,VALID,0,VALID,24.1599,VALID,44,VALID,0.679688,
2012-04-22, 01:12:04,VALID,1009.13,VALID,0,VALID,104,VALID,0,VALID,24.1812,VALID,37,VALID,0.310156,
2012-04-22, 01:13:04,VALID,1009.12,VALID,0,VALID,104,VALID,0,VALID,24.1812,VALID,12,VALID,0.0441406,
2012-04-22, 01:14:04,VALID,1009.13,VALID,0,VALID,104,VALID,0,VALID,24.1812,VALID,343,VALID,0.238281,
2012-04-22, 01:15:04,VALID,1009.14,VALID,0,VALID,104,VALID,0,VALID,24.2202,VALID,341,VALID,0.318359,
2012-04-22, 01:16:04,VALID,1009.14,VALID,0,VALID,104,VALID,0,VALID,24.2591,VALID,286,VALID,0.230078,
2012-04-22, 01:17:04,VALID,1009.15,VALID,0,VALID,104,VALID,0,VALID,24.2591,VALID,214,VALID,0.512109,
2012-04-22, 01:18:04,VALID,1009.18,VALID,0,VALID,104,VALID,0,VALID,24.2963,VALID,166,VALID,0.436328,
2012-04-22, 01:19:04,VALID,1009.23,VALID,0,VALID,104,VALID,0,VALID,24.3371,VALID,167,VALID,0.282813,
2012-04-22, 01:20:04,VALID,1009.23,VALID,0,VALID,104,VALID,0,VALID,24.3176,VALID,316,VALID,0.880469,
2012-04-22, 01:21:04,VALID,1009.27,VALID,0,VALID,104,VALID,0,VALID,24.3176,VALID,319,VALID,0.428125,
2012-04-22, 01:22:04,VALID,1009.27,VALID,0,VALID,104,VALID,0,VALID,24.3176,VALID,307,VALID,1.11641,
2012-04-22, 01:23:04,VALID,1009.25,VALID,0,VALID,104,VALID,0,VALID,24.3194,VALID,307,VALID,0.802344,
2012-04-22, 01:24:04,VALID,1009.21,VALID,0,VALID,104,VALID,0,VALID,24.3194,VALID,360,VALID,0.76875,
2012-04-22, 01:25:04,VALID,1009.2,VALID,0,VALID,104,VALID,0,VALID,24.2786,VALID,17,VALID,0.873828,
2012-04-22, 01:26:04,VALID,1009.2,VALID,0,VALID,104,VALID,0,VALID,24.2591,VALID,2,VALID,0,
2012-04-22, 01:27:04,VALID,1009.19,VALID,0,VALID,104,VALID,0,VALID,24.2805,VALID,319,VALID,0.814062,
2012-04-22, 01:28:04,VALID,1009.16,VALID,0,VALID,104,VALID,0,VALID,24.2202,VALID,326,VALID,0.751953,
2012-04-22, 01:29:04,VALID,1009.13,VALID,0,VALID,104,VALID,0,VALID,24.2007,VALID,347,VALID,0.829297,
2012-04-22, 01:30:04,VALID,1009.08,VALID,0,VALID,104,VALID,0,VALID,24.2007,VALID,327,VALID,1.12109,
2012-04-22, 01:31:04,VALID,1009.07,VALID,0,VALID,104,VALID,0,VALID,24.2202,VALID,315,VALID,0.477734,
2012-04-22, 01:32:04,VALID,1009.1,VALID,0,VALID,104,VALID,0,VALID,24.2202,VALID,298,VALID,0.526953,
2012-04-22, 01:33:04,VALID,1009.11,VALID,0,VALID,104,VALID,0,VALID,24.2202,VALID,304,VALID,0.586719,
2012-04-22, 01:34:04,VALID,1009.07,VALID,0.5,VALID,104,VALID,0,VALID,24.2396,VALID,315,VALID,0.592578,
2012-04-22, 01:35:04,VALID,1009.04,VALID,0,VALID,104,VALID,0,VALID,24.2202,VALID,360,VALID,1.13047,
2012-04-22, 01:36:04,VALID,1008.98,VALID,0,VALID,104,VALID,0,VALID,24.2007,VALID,350,VALID,0.639844,
2012-04-22, 01:37:04,VALID,1008.94,VALID,0,VALID,104,VALID,0,VALID,24.1812,VALID,345,VALID,0,
2012-04-22, 01:38:04,VALID,1008.9,VALID,0,VALID,104,VALID,0,VALID,24.1617,VALID,345,VALID,0.137109,
2012-04-22, 01:39:04,VALID,1008.92,VALID,0,VALID,104,VALID,0,VALID,24.1209,VALID,345,VALID,0,
2012-04-22, 01:40:04,VALID,1008.88,VALID,0,VALID,104,VALID,0,VALID,24.1422,VALID,346,VALID,0.566406,
2012-04-22, 01:41:04,VALID,1008.87,VALID,0,VALID,104,VALID,0,VALID,24.1227,VALID,337,VALID,0.621484,
2012-04-22, 01:42:04,VALID,1008.91,VALID,0,VALID,104,VALID,0,VALID,24.1032,VALID,283,VALID,0.756641,
2012-04-22, 01:43:04,VALID,1008.89,VALID,0,VALID,104,VALID,0,VALID,24.1032,VALID,317,VALID,1.00859,
2012-04-22, 01:44:04,VALID,1008.87,VALID,0,VALID,104,VALID,0,VALID,24.1227,VALID,297,VALID,0.192188,
2012-04-22, 01:45:04,VALID,1008.87,VALID,0.5,VALID,104,VALID,0,VALID,24.1032,VALID,225,VALID,0.470703,
2012-04-22, 01:46:04,VALID,1008.89,VALID,0,VALID,104,VALID,0,VALID,24.1227,VALID,220,VALID,0.308594,
2012-04-22, 01:47:04,VALID,1008.89,VALID,0,VALID,104,VALID,0,VALID,24.1227,VALID,222,VALID,0.0578125,
2012-04-22, 01:48:04,VALID,1008.86,VALID,0,VALID,104,VALID,0,VALID,24.1032,VALID,300,VALID,0.796484,
2012-04-22, 01:49:04,VALID,1008.9,VALID,0,VALID,104,VALID,0.112112,VALID,24.1032,VALID,324,VALID,0.739453,
2012-04-22, 01:50:04,VALID,1008.91,VALID,0,VALID,104,VALID,0,VALID,24.0837,VALID,330,VALID,0.733594,
2012-04-22, 01:51:04,VALID,1008.93,VALID,0,VALID,104,VALID,0,VALID,24.0837,VALID,324,VALID,0.709766,
2012-04-22, 01:52:04,VALID,1008.9,VALID,0,VALID,104,VALID,0,VALID,24.0643,VALID,294,VALID,1.85898,
2012-04-22, 01:53:04,VALID,1008.9,VALID,0,VALID,104,VALID,0,VALID,24.0643,VALID,314,VALID,0.707031,
2012-04-22, 01:54:04,VALID,1008.88,VALID,0,VALID,104,VALID,0,VALID,24.0643,VALID,323,VALID,0.797656,
2012-04-22, 01:55:04,VALID,1008.9,VALID,0,VALID,104,VALID,0,VALID,24.0448,VALID,293,VALID,0.731641,
2012-04-22, 01:56:04,VALID,1008.9,VALID,0,VALID,104,VALID,0,VALID,24.0253,VALID,259,VALID,0.834375,
2012-04-22, 01:57:04,VALID,1008.9,VALID,0,VALID,104,VALID,0,VALID,24.0058,VALID,317,VALID,1.71367,
2012-04-22, 01:58:04,VALID,1008.86,VALID,0,VALID,104,VALID,0,VALID,23.9863,VALID,272,VALID,1.61836,
2012-04-22, 01:59:04,VALID,1008.87,VALID,0,VALID,104,VALID,0,VALID,23.9863,VALID,248,VALID,0.971875,
2012-04-22, 02:00:04,VALID,1008.84,VALID,0.5,VALID,104,VALID,0,VALID,23.9863,VALID,275,VALID,0.432422,
2012-04-22, 02:01:04,VALID,1008.86,VALID,0,VALID,104,VALID,0,VALID,23.9863,VALID,269,VALID,1.00117,
2012-04-22, 02:02:04,VALID,1008.84,VALID,0,VALID,104,VALID,0,VALID,23.9668,VALID,271,VALID,0.309766,
2012-04-22, 02:03:04,VALID,1008.87,VALID,0,VALID,104,VALID,0,VALID,23.9473,VALID,320,VALID,0.40625,
2012-04-22, 02:04:04,VALID,1008.85,VALID,0,VALID,104,VALID,0,VALID,23.9473,VALID,295,VALID,0.571094,
2012-04-22, 02:05:04,VALID,1008.84,VALID,0,VALID,104,VALID,0,VALID,23.9278,VALID,292,VALID,0.794141,
2012-04-22, 02:06:04,VALID,1008.84,VALID,0,VALID,104,VALID,0,VALID,23.9084,VALID,339,VALID,1.04531,
2012-04-22, 02:07:04,VALID,1008.85,VALID,0,VALID,104,VALID,0,VALID,23.8889,VALID,352,VALID,1.19805,
2012-04-22, 02:08:04,VALID,1008.81,VALID,0,VALID,104,VALID,0,VALID,23.8889,VALID,328,VALID,0.559766,
2012-04-22, 02:09:04,VALID,1008.77,VALID,0,VALID,104,VALID,0,VALID,23.8499,VALID,287,VALID,0.187891,
2012-04-22, 02:10:04,VALID,1008.77,VALID,0,VALID,104,VALID,0,VALID,23.8304,VALID,289,VALID,0.187891,
2012-04-22, 02:11:04,VALID,1008.76,VALID,0,VALID,104,VALID,0,VALID,23.8517,VALID,294,VALID,0.947656,
2012-04-22, 02:12:04,VALID,1008.69,VALID,0,VALID,104,VALID,0,VALID,23.8109,VALID,314,VALID,0.206641,
2012-04-22, 02:13:04,VALID,1008.69,VALID,0,VALID,104,VALID,0,VALID,23.8109,VALID,332,VALID,0.241406,
2012-04-22, 02:14:04,VALID,1008.7,VALID,0,VALID,104,VALID,0,VALID,23.8322,VALID,336,VALID,1.60391,
2012-04-22, 02:15:04,VALID,1008.74,VALID,0,VALID,104,VALID,0,VALID,23.772,VALID,305,VALID,0.866406,
2012-04-22, 02:16:04,VALID,1008.76,VALID,0,VALID,104,VALID,0,VALID,23.7525,VALID,322,VALID,1.35547,
2012-04-22, 02:17:04,VALID,1008.76,VALID,0,VALID,104,VALID,0,VALID,23.7701,VALID,341,VALID,0.453125,
2012-04-22, 02:18:04,VALID,1008.77,VALID,0,VALID,104,VALID,0,VALID,23.7701,VALID,337,VALID,0.310547,
2012-04-22, 02:19:04,VALID,1008.78,VALID,0,VALID,104,VALID,0,VALID,23.733,VALID,334,VALID,1.19062,
2012-04-22, 02:20:04,VALID,1008.77,VALID,0,VALID,104,VALID,0,VALID,23.733,VALID,301,VALID,0.413281,
2012-04-22, 02:21:04,VALID,1008.77,VALID,0,VALID,104,VALID,0,VALID,23.733,VALID,299,VALID,0.684766,
2012-04-22, 02:22:04,VALID,1008.8,VALID,0,VALID,104,VALID,0,VALID,23.7135,VALID,315,VALID,0.690625,
2012-04-22, 02:23:04,VALID,1008.79,VALID,0,VALID,104,VALID,0,VALID,23.694,VALID,309,VALID,0.571484,
2012-04-22, 02:24:04,VALID,1008.78,VALID,0,VALID,104,VALID,0,VALID,23.6745,VALID,301,VALID,0.662109,
2012-04-22, 02:25:04,VALID,1008.78,VALID,0,VALID,104,VALID,0,VALID,23.694,VALID,311,VALID,0.322266,
2012-04-22, 02:26:04,VALID,1008.77,VALID,0,VALID,104,VALID,0,VALID,23.6958,VALID,298,VALID,0.310937,
2012-04-22, 02:27:04,VALID,1008.75,VALID,0,VALID,104,VALID,0,VALID,23.6745,VALID,300,VALID,0.472656,
2012-04-22, 02:28:04,VALID,1008.73,VALID,0,VALID,104,VALID,0,VALID,23.6356,VALID,338,VALID,0.232031,
2012-04-22, 02:29:04,VALID,1008.73,VALID,0,VALID,104,VALID,0,VALID,23.6161,VALID,348,VALID,0.226172,
2012-04-22, 02:30:04,VALID,1008.73,VALID,0,VALID,104,VALID,0,VALID,23.6373,VALID,343,VALID,0.346094,
2012-04-22, 02:31:04,VALID,1008.71,VALID,0,VALID,104,VALID,0,VALID,23.5966,VALID,325,VALID,0.773438,
2012-04-22, 02:32:04,VALID,1008.7,VALID,0,VALID,104,VALID,0,VALID,23.5771,VALID,326,VALID,0.348437,
2012-04-22, 02:33:04,VALID,1008.69,VALID,0,VALID,104,VALID,0.112112,VALID,23.5966,VALID,326,VALID,0.351953,
2012-04-22, 02:34:04,VALID,1008.71,VALID,0,VALID,104,VALID,0,VALID,23.5771,VALID,304,VALID,0.664063,
2012-04-22, 02:35:04,VALID,1008.72,VALID,0,VALID,104,VALID,0,VALID,23.5771,VALID,284,VALID,0.555469,
2012-04-22, 02:36:04,VALID,1008.73,VALID,0,VALID,104,VALID,0,VALID,23.5576,VALID,308,VALID,0.492578,
2012-04-22, 02:37:04,VALID,1008.73,VALID,0,VALID,104,VALID,0,VALID,23.5381,VALID,325,VALID,0.639063,
2012-04-22, 02:38:04,VALID,1008.75,VALID,0,VALID,104,VALID,0,VALID,23.5381,VALID,334,VALID,0.791016,
2012-04-22, 02:39:04,VALID,1008.74,VALID,0,VALID,104,VALID,0,VALID,23.5381,VALID,346,VALID,0.439453,
2012-04-22, 02:40:04,VALID,1008.77,VALID,0,VALID,104,VALID,0,VALID,23.4992,VALID,343,VALID,0.686328,
2012-04-22, 02:41:04,VALID,1008.75,VALID,0,VALID,104,VALID,0,VALID,23.4992,VALID,345,VALID,0.937109,
2012-04-22, 02:42:04,VALID,1008.73,VALID,0,VALID,104,VALID,0,VALID,23.4797,VALID,4,VALID,0.954687,
2012-04-22, 02:43:04,VALID,1008.75,VALID,0,VALID,104,VALID,0,VALID,23.4797,VALID,11,VALID,0.542578,
2012-04-22, 02:44:04,VALID,1008.74,VALID,0,VALID,104,VALID,0,VALID,23.4602,VALID,11,VALID,0.685156,
2012-04-22, 02:45:04,VALID,1008.73,VALID,0,VALID,104,VALID,0,VALID,23.4602,VALID,11,VALID,0.311328,
2012-04-22, 02:46:04,VALID,1008.73,VALID,0,VALID,104,VALID,0,VALID,23.4602,VALID,316,VALID,0.0289063,
2012-04-22, 02:47:04,VALID,1008.74,VALID,0,VALID,104,VALID,0,VALID,23.4602,VALID,316,VALID,0,
2012-04-22, 02:48:04,VALID,1008.71,VALID,0,VALID,104,VALID,0,VALID,23.4602,VALID,316,VALID,0,
2012-04-22, 02:49:04,VALID,1008.68,VALID,0,VALID,104,VALID,0,VALID,23.4797,VALID,316,VALID,0,
2012-04-22, 02:50:04,VALID,1008.65,VALID,0,VALID,104,VALID,0,VALID,23.4602,VALID,313,VALID,0.841797,
2012-04-22, 02:51:04,VALID,1008.64,VALID,0,VALID,104,VALID,0,VALID,23.4389,VALID,312,VALID,0.605078,
2012-04-22, 02:52:04,VALID,1008.63,VALID,0,VALID,104,VALID,0,VALID,23.4389,VALID,300,VALID,0.509375,
2012-04-22, 02:53:04,VALID,1008.61,VALID,0,VALID,104,VALID,0,VALID,23.4797,VALID,304,VALID,0.211328,
2012-04-22, 02:54:04,VALID,1008.57,VALID,0,VALID,104,VALID,0.112112,VALID,23.4584,VALID,304,VALID,0.0621094,
2012-04-22, 02:55:04,VALID,1008.57,VALID,0,VALID,104,VALID,0.112112,VALID,23.4584,VALID,304,VALID,0.01875,
2012-04-22, 02:56:04,VALID,1008.54,VALID,0,VALID,104,VALID,0,VALID,23.4584,VALID,295,VALID,0.144922,
2012-04-22, 02:57:04,VALID,1008.51,VALID,0,VALID,104,VALID,0.112112,VALID,23.4797,VALID,224,VALID,0.583594,
2012-04-22, 02:58:04,VALID,1008.49,VALID,0,VALID,104,VALID,0,VALID,23.4992,VALID,214,VALID,0.342578,
2012-04-22, 02:59:04,VALID,1008.51,VALID,0,VALID,104,VALID,0,VALID,23.4992,VALID,234,VALID,0.220313,
2012-04-22, 03:00:04,VALID,1008.49,VALID,0,VALID,104,VALID,0,VALID,23.4779,VALID,266,VALID,0.046875,
2012-04-22, 03:01:04,VALID,1008.5,VALID,0,VALID,104,VALID,0,VALID,23.5186,VALID,266,VALID,0.0078125,
2012-04-22, 03:02:04,VALID,1008.49,VALID,0,VALID,104,VALID,0,VALID,23.5186,VALID,210,VALID,0.444141,
2012-04-22, 03:03:04,VALID,1008.51,VALID,0,VALID,104,VALID,0.112112,VALID,23.4974,VALID,210,VALID,0.48125,
2012-04-22, 03:04:04,VALID,1008.49,VALID,0,VALID,104,VALID,0,VALID,23.5381,VALID,210,VALID,0.362891,
2012-04-22, 03:05:04,VALID,1008.51,VALID,0,VALID,104,VALID,0.112112,VALID,23.5169,VALID,210,VALID,0.180859,
2012-04-22, 03:06:04,VALID,1008.47,VALID,0,VALID,104,VALID,0,VALID,23.5381,VALID,210,VALID,0.31875,
2012-04-22, 03:07:04,VALID,1008.49,VALID,0,VALID,104,VALID,0,VALID,23.5576,VALID,210,VALID,0.0121094,
2012-04-22, 03:08:04,VALID,1008.46,VALID,0,VALID,104,VALID,0,VALID,23.5966,VALID,210,VALID,0,
2012-04-22, 03:09:04,VALID,1008.45,VALID,0,VALID,104,VALID,0,VALID,23.5966,VALID,210,VALID,0.0015625,
2012-04-22, 03:10:04,VALID,1008.43,VALID,0,VALID,104,VALID,0,VALID,23.5966,VALID,210,VALID,0.0078125,
2012-04-22, 03:11:04,VALID,1008.44,VALID,0,VALID,104,VALID,0,VALID,23.5966,VALID,210,VALID,0,
2012-04-22, 03:12:04,VALID,1008.4,VALID,0,VALID,104,VALID,0.112112,VALID,23.5771,VALID,210,VALID,0.00078125,
2012-04-22, 03:13:04,VALID,1008.35,VALID,0,VALID,104,VALID,0,VALID,23.5363,VALID,210,VALID,0.414063,
2012-04-22, 03:14:04,VALID,1008.32,VALID,0,VALID,104,VALID,0.112112,VALID,23.5169,VALID,210,VALID,0.382813,
2012-04-22, 03:15:04,VALID,1008.3,VALID,0,VALID,104,VALID,0.112112,VALID,23.5381,VALID,210,VALID,0.443359,
2012-04-22, 03:16:04,VALID,1008.29,VALID,0,VALID,104,VALID,0,VALID,23.5576,VALID,208,VALID,0.213672,
2012-04-22, 03:17:04,VALID,1008.25,VALID,0,VALID,104,VALID,0,VALID,23.5576,VALID,208,VALID,0.345703,
2012-04-22, 03:18:04,VALID,1008.27,VALID,0,VALID,104,VALID,0,VALID,23.5576,VALID,208,VALID,0.283984,
2012-04-22, 03:19:04,VALID,1008.25,VALID,0,VALID,104,VALID,0,VALID,23.5576,VALID,208,VALID,0.4,
2012-04-22, 03:20:04,VALID,1008.24,VALID,0,VALID,104,VALID,0.112112,VALID,23.5363,VALID,208,VALID,0,
2012-04-22, 03:21:04,VALID,1008.27,VALID,0,VALID,104,VALID,0,VALID,23.5169,VALID,208,VALID,0,
2012-04-22, 03:22:04,VALID,1008.27,VALID,0,VALID,104,VALID,0.112112,VALID,23.5381,VALID,208,VALID,0,
2012-04-22, 03:23:04,VALID,1008.25,VALID,0,VALID,104,VALID,0.112112,VALID,23.4974,VALID,208,VALID,0,
2012-04-22, 03:24:04,VALID,1008.26,VALID,0,VALID,104,VALID,0,VALID,23.5186,VALID,208,VALID,0,
2012-04-22, 03:25:04,VALID,1008.24,VALID,0,VALID,104,VALID,0.112112,VALID,23.5169,VALID,208,VALID,0,
2012-04-22, 03:26:04,VALID,1008.23,VALID,0,VALID,104,VALID,0,VALID,23.5363,VALID,208,VALID,0,
2012-04-22, 03:27:04,VALID,1008.19,VALID,0,VALID,104,VALID,0,VALID,23.5363,VALID,208,VALID,0,
2012-04-22, 03:28:04,VALID,1008.14,VALID,0,VALID,104,VALID,0.112112,VALID,23.5363,VALID,208,VALID,0.239063,
2012-04-22, 03:29:04,VALID,1008.1,VALID,0,VALID,104,VALID,0,VALID,23.5363,VALID,208,VALID,0,
2012-04-22, 03:30:04,VALID,1008.13,VALID,0,VALID,104,VALID,0.112112,VALID,23.5169,VALID,208,VALID,0.00429688,
2012-04-22, 03:31:04,VALID,1008.15,VALID,0,VALID,104,VALID,0.112112,VALID,23.5381,VALID,208,VALID,0,
2012-04-22, 03:32:04,VALID,1008.12,VALID,0,VALID,104,VALID,0.112112,VALID,23.5169,VALID,208,VALID,0,
2012-04-22, 03:33:04,VALID,1008.14,VALID,0,VALID,104,VALID,0,VALID,23.5363,VALID,208,VALID,0,
2012-04-22, 03:34:04,VALID,1008.12,VALID,0,VALID,104,VALID,0.112112,VALID,23.5576,VALID,208,VALID,0,
2012-04-22, 03:35:04,VALID,1008.16,VALID,0,VALID,104,VALID,0,VALID,23.5576,VALID,208,VALID,0.273047,
2012-04-22, 03:36:04,VALID,1008.14,VALID,0,VALID,104,VALID,0.112112,VALID,23.5576,VALID,208,VALID,0,
2012-04-22, 03:37:04,VALID,1008.14,VALID,0,VALID,104,VALID,0.112112,VALID,23.5771,VALID,208,VALID,0,
2012-04-22, 03:38:04,VALID,1008.14,VALID,0,VALID,104,VALID,0.112112,VALID,23.5771,VALID,208,VALID,0,
2012-04-22, 03:39:04,VALID,1008.14,VALID,0,VALID,104,VALID,0.112112,VALID,23.5363,VALID,208,VALID,0,
2012-04-22, 03:40:04,VALID,1008.15,VALID,0,VALID,104,VALID,0,VALID,23.5381,VALID,208,VALID,0,
2012-04-22, 03:41:04,VALID,1008.13,VALID,0,VALID,104,VALID,0,VALID,23.5399,VALID,208,VALID,0,
2012-04-22, 03:42:04,VALID,1008.16,VALID,0,VALID,104,VALID,0.112112,VALID,23.5186,VALID,208,VALID,0,
2012-04-22, 03:43:04,VALID,1008.17,VALID,0,VALID,104,VALID,0.112112,VALID,23.5186,VALID,208,VALID,0.352344,
2012-04-22, 03:44:04,VALID,1008.15,VALID,0,VALID,104,VALID,0,VALID,23.4992,VALID,208,VALID,0.311328,
2012-04-22, 03:45:04,VALID,1008.13,VALID,0,VALID,104,VALID,0,VALID,23.4602,VALID,208,VALID,0.341797,
2012-04-22, 03:46:04,VALID,1008.11,VALID,0,VALID,104,VALID,0.112112,VALID,23.4407,VALID,208,VALID,0.155078,
2012-04-22, 03:47:04,VALID,1008.12,VALID,0,VALID,104,VALID,0,VALID,23.4017,VALID,208,VALID,0,
2012-04-22, 03:48:04,VALID,1008.1,VALID,0,VALID,104,VALID,0,VALID,23.3823,VALID,208,VALID,0,
2012-04-22, 03:49:04,VALID,1008.1,VALID,0,VALID,104,VALID,0,VALID,23.3823,VALID,208,VALID,0,
2012-04-22, 03:50:04,VALID,1008.12,VALID,0,VALID,104,VALID,0,VALID,23.4,VALID,208,VALID,0.137109,
2012-04-22, 03:51:04,VALID,1008.16,VALID,0,VALID,104,VALID,0,VALID,23.4212,VALID,208,VALID,0.196094,
2012-04-22, 03:52:04,VALID,1008.16,VALID,0,VALID,104,VALID,0.112112,VALID,23.4602,VALID,208,VALID,0.258984,
2012-04-22, 03:53:04,VALID,1008.16,VALID,0,VALID,104,VALID,0.112112,VALID,23.4797,VALID,208,VALID,0.132422,